Regional Weather Roundup
Issued by NWS

Home | Current Version | Previous Version | Text Only | Print | Product List | Glossary Off
Versions: 1 2 3 4 5 6 7 8 9 10 11 12 13 14 15 16 17 18 19 20 21 22 23 24 25 26 27 28 29 30 31 32 33 34 35 36 37 38 39 40 41 42 43 44 45 46 47 48 49 50

000
ASUS43 KDTX 241210
RWRMI
MICHIGAN HOURLY REGIONAL WEATHER ROUNDUP
NATIONAL WEATHER SERVICE DETROIT/PONTIAC MI
ISSUED BY NATIONAL WEATHER SERVICE GRAND RAPIDS MI
800 AM EDT SAT JUN 24 2017

NOTE: "FAIR" INDICATES FEW OR NO CLOUDS BELOW 12,000 FEET WITH NO
SIGNIFICANT WEATHER AND/OR OBSTRUCTION TO VISIBILITY.

MIZ047>049-052>055-059>063-066>070-074>076-081>083-241300-
SOUTHEAST LOWER MICHIGAN

CITY           SKY/WX    TMP DP  RH WIND       PRES   REMARKS
ADRIAN         SUNNY     64  56  75 NW8       29.87R
6HR MIN TEMP:  60; 6HR MAX TEMP:  64;

ALMA           SUNNY     62  57  84 W6        29.82S
ANN ARBOR      SUNNY     64  57  78 W10G20    29.84R
BAD AXE        PTSUNNY   62  55  75 W3        29.80R
6HR MIN TEMP:  55; 6HR MAX TEMP:  63;

DETROIT CITY   SUNNY     66  56  70 W8        29.81R
6HR MIN TEMP:  63; 6HR MAX TEMP:  67;

DETROIT        MOSUNNY   66  56  70 W12       29.83R
6HR MIN TEMP:  63; 6HR MAX TEMP:  66;

FLINT          SUNNY     63  56  78 W12       29.82R
6HR MIN TEMP:  58; 6HR MAX TEMP:  66;

GROSSE ILE     SUNNY     65  56  73 NW7       29.82R
6HR MIN TEMP:  61; 6HR MAX TEMP:  65;

HILLSDALE      SUNNY     63  54  72 W9        29.87R
HOWELL         SUNNY     63  55  74 W9        29.84R
6HR MIN TEMP:  58; 6HR MAX TEMP:  65;


CITY           SKY/WX    TMP DP  RH WIND       PRES   REMARKS
JACKSON        SUNNY     63  55  75 W8        29.85R
6HR MIN TEMP:  59; 6HR MAX TEMP:  64;

LANSING        SUNNY     65  54  67 W10       29.84R
6HR MIN TEMP:  62; 6HR MAX TEMP:  67;

MASON          SUNNY     63  56  80 W6        29.85R
MONROE         SUNNY     65  57  77 W8        29.83R
6HR MIN TEMP:  59; 6HR MAX TEMP:  65;

MT. CLEMENS    MOSUNNY   66  57  72 W10       29.79R
6HR MIN TEMP:  63; 6HR MAX TEMP:  66;

PONTIAC        MOSUNNY   63  56  78 W10       29.81R
6HR MIN TEMP:  61; 6HR MAX TEMP:  66;

PORT HOPE        N/A     65  55  70 W6        29.77R
6HR MIN TEMP:  58; 6HR MAX TEMP:  65;

PORT HURON     SUNNY     63  55  77 W5        29.80R
TRI CITIES     MOSUNNY   63  58  83 NW6       29.81S
6HR MIN TEMP:  57; 6HR MAX TEMP:  64;

YPSILANTI      SUNNY     67  57  70 W13       29.84R
6HR MIN TEMP:  63; 6HR MAX TEMP:  67;

$$
MIZ043>046-050>051-056>058-064>065-071>073-077>080-241300-
SOUTHWEST LOWER MICHIGAN

CITY           SKY/WX    TMP DP  RH WIND       PRES   REMARKS
BATTLE CREEK   SUNNY     63  57  81 W9        29.87R
6HR MIN TEMP:  58; 6HR MAX TEMP:  63;

BENTON HARBOR  SUNNY     65  56  72 W7G17     29.88R
6HR MIN TEMP:  64; 6HR MAX TEMP:  67;

BIG RAPIDS     SUNNY     60  54  78 NW6       29.81S
6HR MIN TEMP:  56; 6HR MAX TEMP:  60;

COLDWATER      SUNNY     63  57  81 W7        29.88R
6HR MIN TEMP:  58; 6HR MAX TEMP:  63;

HOLLAND        MOSUNNY   65  56  72 NW9       29.86S
6HR MIN TEMP:  62; 6HR MAX TEMP:  66;

GRAND RAPIDS   MOSUNNY   64  58  80 W10       29.84R
6HR MIN TEMP:  60; 6HR MAX TEMP:  65;

KALAMAZOO      SUNNY     64  55  72 W8        29.87S
6HR MIN TEMP:  60; 6HR MAX TEMP:  65;

MARSHALL       SUNNY     64  57  80 W7        29.86S
6HR MIN TEMP:  58; 6HR MAX TEMP:  64;

MOUNT PLEASANT SUNNY     62  54  75 W5        29.80S
6HR MIN TEMP:  58; 6HR MAX TEMP:  63;

MUSKEGON       MOSUNNY   65  56  72 NW12      29.84S
6HR MIN TEMP:  62; 6HR MAX TEMP:  66;

STURGIS        SUNNY     63  57  82 W7        29.88R
6HR MIN TEMP:  59; 6HR MAX TEMP:  64;

$$
MIZ016>042-241300-
NORTHERN LOWER MICHIGAN

CITY           SKY/WX    TMP DP  RH WIND       PRES   REMARKS
ALPENA         SUNNY     60  52  74 VRB7      29.77S
6HR MIN TEMP:  54; 6HR MAX TEMP:  60;

BEAVER ISLAND  MOSUNNY   58  53  81 NW6       29.78S
6HR MIN TEMP:  47; 6HR MAX TEMP:  58;

BELLAIRE       SUNNY     60  56  85 CALM      29.79S
6HR MIN TEMP:  49; 6HR MAX TEMP:  60;

CADILLAC       SUNNY     58  54  85 W7        29.81S
CHARLEVOIX     SUNNY     60  54  79 W6        29.81S
GAYLORD        SUNNY     58  50  75 W8        29.79S
6HR MIN TEMP:  52; 6HR MAX TEMP:  58;

HOUGHTON LAKE  SUNNY     61  52  72 W12       29.80S
6HR MIN TEMP:  52; 6HR MAX TEMP:  61;

MANISTEE       MOSUNNY   59  56  89 W6        29.82R
OSCODA         MOSUNNY   62  51  68 W14       29.77R
6HR MIN TEMP:  52; 6HR MAX TEMP:  62;

PELLSTON       SUNNY     59  52  77 W8        29.78R
6HR MIN TEMP:  48; 6HR MAX TEMP:  59;

TRAVERSE CITY  MOSUNNY   62  55  77 W6        29.78S
6HR MIN TEMP:  55; 6HR MAX TEMP:  62;

LUDINGTON      PTSUNNY   61  56  84 NW7       29.83R
6HR MIN TEMP:  58; 6HR MAX TEMP:  62;

$$
MIZ007>008-015-241300-
EASTERN UPPER MICHIGAN

CITY           SKY/WX    TMP DP  RH WIND       PRES   REMARKS
KINROSS        PTSUNNY   50  48  93 NW7       29.78
6HR MIN TEMP:  45; 6HR MAX TEMP:  50;

MACKINAC ISLAN SUNNY     56  56 100 NW5       29.77S
6HR MIN TEMP:  52; 6HR MAX TEMP:  56;

NEWBERRY       SUNNY     52  51  97 NW5       29.79R
6HR MIN TEMP:  46; 6HR MAX TEMP:  52;

S. S. MARIE    SUNNY     52  48  86 W6        29.77R
6HR MIN TEMP:  49; 6HR MAX TEMP:  52;

$$
MIZ004>006-011>014-085-241300-
CENTRAL UPPER MICHIGAN

CITY           SKY/WX    TMP DP  RH WIND       PRES   REMARKS
MANISTIQUE     MOSUNNY   53  50  89 NW6       29.79R
6HR MIN TEMP:  45; 6HR MAX TEMP:  53;

ESCANABA       PTSUNNY   56  51  84 W7        29.81R
6HR MIN TEMP:  52; 6HR MAX TEMP:  56;

MENOMINEE      PTSUNNY   57  53  86 VRB3      29.83R
6HR MIN TEMP:  55; 6HR MAX TEMP:  58;

SAWYER-GWINN   PTSUNNY   54  50  87 NW6       29.81R
$$
MIZ001>003-009>011-084-241300-
WESTERN UPPER MICHIGAN

CITY           SKY/WX    TMP DP  RH WIND       PRES   REMARKS
IRON MOUNTAIN  CLOUDY    55  50  83 W3        29.82S
6HR MIN TEMP:  50; 6HR MAX TEMP:  55;

HOUGHTON       CLOUDY    53  49  86 W9        29.80R
6HR MIN TEMP:  51; 6HR MAX TEMP:  53;

COPPER HARBOR    N/A     55  52  89 N7        29.80R
6HR MIN TEMP:  53; 6HR MAX TEMP:  57;

IRONWOOD       CLOUDY    53  51  93 W9        29.87R
6HR MIN TEMP:  53; 6HR MAX TEMP:  57; 6HR PCP: TRACE;

$$

ABBREVIATIONS USED IN REMARKS
   TC - TEMPERATURE IN CELSIUS
  WCI - WIND CHILL INDEX
   HX - HEAT INDEX
  VSB - VISIBILITY





USA.gov is the U.S. government's official web portal to all federal, state and local government web resources and services.